FW6216 Weather Reports


Display with metric or nautical units.
time (UTC)temp
F
wind
direction
speed
MPH
gust
MPH
rain 1hr
in
rain 24hr
in
rain mn
in
humidity
%
barometer
mb
20260901161529 61 30 1.0 5.0 0.00 0.00 0.00 69 1012.1
20260901160036 59 54 1.0 5.0 0.00 0.00 0.00 71 1012.1
20260901154534 58 72 4.0 7.0 0.00 0.00 0.00 73 1012.1
20260901153032 56 75 2.0 6.0 0.00 0.00 0.00 73 1012.0
20260901151606 54 137 0.0 4.0 0.00 0.00 0.00 72 1012.0
20260901150031 53 247 0.0 0.0 0.00 0.00 0.00 72 1011.8
20260901144606 53 247 0.0 0.0 0.00 0.00 0.00 71 1011.8
20260901143032 52 247 0.0 3.0 0.00 0.00 0.00 70 1011.7
20260901141532 52 198 0.0 3.0 0.00 0.00 0.00 71 1011.7
20260901140106 52 247 0.0 0.0 0.00 0.00 0.00 70 1011.6
20260901133029 54 191 0.0 0.0 0.00 0.00 0.00 66 1011.4
20260901131534 54 157 0.0 0.0 0.00 0.00 0.00 65 1011.3
20260901130035 53 166 0.0 3.0 0.00 0.00 0.00 64 1011.2
20260901124530 53 238 0.0 3.0 0.00 0.00 0.00 63 1011.1
20260901123030 53 270 0.0 0.0 0.00 0.00 0.00 62 1011.0
20260901121643 53 270 0.0 1.0 0.00 0.00 0.00 61 1011.0
20260901120034 54 256 1.0 4.0 0.00 0.00 0.00 61 1011.0
20260901114531 54 238 0.0 2.0 0.00 0.00 0.00 61 1011.1
20260901113029 54 211 1.0 4.0 0.00 0.00 0.00 59 1011.2
20260901111536 55 264 0.0 4.0 0.00 0.00 0.00 57 1011.1
20260901110035 55 261 0.0 2.0 0.00 0.00 0.00 56 1011.0
20260901103148 56 247 0.0 0.0 0.00 0.00 0.00 53 1011.1
20260901101535 56 234 0.0 3.0 0.00 0.00 0.00 52 1011.1
20260901094532 57 225 0.0 0.0 0.00 0.00 0.00 50 1011.2
20260901093029 57 232 2.0 3.0 0.00 0.00 0.00 49 1011.2
20260901091536 58 219 0.0 3.0 0.00 0.00 0.00 47 1011.2
20260901090107 59 165 0.0 0.0 0.00 0.00 0.00 47 1011.1
20260901084633 58 157 0.0 0.0 0.00 0.00 0.00 48 1011.2
20260901083141 57 165 0.0 0.0 0.00 0.00 0.00 49 1011.3
20260901081531 57 253 0.0 0.0 0.00 0.00 0.00 48 1011.4
20260901080030 58 259 0.0 0.0 0.00 0.00 0.00 47 1011.4
20260901074536 58 183 0.0 2.0 0.00 0.00 0.00 46 1011.4
20260901073031 59 225 0.0 2.0 0.00 0.00 0.00 46 1011.4
20260901071530 59 225 1.0 4.0 0.00 0.00 0.00 45 1011.4
20260901063030 59 147 2.0 4.0 0.00 0.00 0.00 44 1011.6
20260901061532 59 211 0.0 4.0 0.00 0.00 0.00 44 1011.7
20260901060035 60 155 2.0 5.0 0.00 0.00 0.00 44 1011.7
20260901054532 61 157 0.0 3.0 0.00 0.00 0.00 43 1011.9
20260901053036 61 187 1.0 6.0 0.00 0.00 0.00 42 1011.8
20260901050143 62 164 4.0 6.0 0.00 0.00 0.00 43 1011.8
20260901041606 66 181 2.0 4.0 0.00 0.00 0.00 39 1011.7
20260901040035 66 212 0.0 2.0 0.00 0.00 0.00 38 1011.6
20260901034529 67 161 1.0 3.0 0.00 0.00 0.00 38 1011.4
20260901030029 69 197 0.0 0.0 0.00 0.00 0.00 36 1011.1
20260901024533 70 142 0.0 0.0 0.00 0.00 0.00 34 1011.0
20260901023035 71 119 0.0 4.0 0.00 0.00 0.00 33 1010.8
20260901021531 73 62 1.0 5.0 0.00 0.00 0.00 32 1010.7
20260901020036 75 32 4.0 6.0 0.00 0.00 0.00 31 1010.7
20260901013031 79 28 4.0 9.0 0.00 0.00 0.00 30 1010.7
20260901010030 80 15 5.0 10.0 0.00 0.00 0.00 30 1010.8
20260901004640 81 15 4.0 9.0 0.00 0.00 0.00 30 1010.9
20260901003034 80 12 5.0 11.0 0.00 0.00 0.00 30 1010.9
20260901001534 80 8 4.0 10.0 0.00 0.00 0.00 30 1011.1
20260901000033 80 10 5.0 12.0 0.00 0.00 0.00 29 1011.1
20260831234531 81 20 6.0 12.0 0.00 0.00 0.00 29 1011.3
20260831233034 81 33 4.0 10.0 0.00 0.00 0.00 29 1011.5
20260831231536 81 16 5.0 11.0 0.00 0.00 0.00 29 1011.7
20260831230032 81 32 4.0 11.0 0.00 0.00 0.00 31 1012.0
20260831223146 80 10 5.0 11.0 0.00 0.00 0.00 32 1012.4
20260831221534 79 1 4.0 13.0 0.00 0.00 0.00 33 1012.5
20260831220030 79 359 4.0 15.0 0.00 0.00 0.00 33 1012.8
20260831213034 78 11 5.0 13.0 0.00 0.00 0.00 35 1013.3
20260831211538 78 17 5.0 13.0 0.00 0.00 0.00 35 1013.5
20260831210029 78 7 6.0 16.0 0.00 0.00 0.00 36 1013.6
20260831204609 78 17 6.0 15.0 0.00 0.00 0.00 36 1013.9
20260831203107 78 12 6.0 15.0 0.00 0.00 0.00 37 1014.2
20260831200035 76 22 6.0 15.0 0.00 0.00 0.00 38 1014.6
20260831194532 76 6 6.0 13.0 0.00 0.00 0.00 38 1014.7
20260831193035 75 24 6.0 14.0 0.00 0.00 0.00 40 1015.0
20260831190107 73 19 6.0 13.0 0.00 0.00 0.00 44 1015.6
20260831184536 72 13 4.0 10.0 0.00 0.00 0.00 45 1016.0
20260831183031 71 15 3.0 10.0 0.00 0.00 0.00 46 1016.2
20260831174536 70 20 3.0 8.0 0.00 0.00 0.00 47 1016.7
20260831173109 70 45 4.0 10.0 0.00 0.00 0.00 48 1016.8
20260831171532 69 57 3.0 7.0 0.00 0.00 0.00 50 1016.8
20260831164535 71 345 2.0 6.0 0.00 0.00 0.00 50 1017.0
20260831163034 71 14 0.0 5.0 0.00 0.00 0.00 51 1017.1